Vorticity
2 4 4 5 7 8 10 7 9 10 6 24 3 22 19 17 17 10 5 8 7 8
6 5 3 4 1 2 5 4 -1 3 5 4 10 6 7 20 16 9 9 15 14 -5
6 6 6 5 7 2 8 -0 1 2 2 2 3 -3 2 8 4 13 4 15 26 2
9 6 5 7 7 4 6 6 4 6 5 2 4 3 4 9 -1 15 0 -4 12 23
5 4 7 4 2 7 9 7 8 6 5 6 2 26 3 3 -1 -2 13 11 3 9
26 22 17 10 9 8 4 4 10 11 11 6 5 8 1 52 -26 2 2 3 7 6
7 14 20 25 26 20 14 13 7 7 9 5 13 -4 -9 16 15 75 -26 -2 9 -2
10 6 9 10 15 21 21 24 8 8 16 5 12 5 -16 40 27 -11 56 17 39 -18
7 6 5 11 15 19 22 20 22 22 2 13 1 6 27 15 15 21 -4 36 28 17
9 11 12 11 9 16 17 21 15 15 10 18 5 14 3 -17 17 -1 14 18 -23 3
6 8 10 10 8 9 14 20 23 15 18 22 10 4 16 -14 -4 15 14 13 30 17
11 7 9 8 8 8 8 11 15 20 17 15 16 18 21 3 10 16 12 15 2 6
11 4 -1 4 7 8 8 12 11 13 18 15 12 9 9 16 9 10 15 11 10 12
9 16 6 1 3 7 6 6 8 13 17 14 18 19 8 5 10 11 19 -0 16 7
Height
5726 5731 5735 5738 5741 5744 5749 5752 5754 5756 5759 5761 5762 5763 5764 5766 5766 5767 5767 5768 5769 5769
5715 5719 5723 5727 5731 5735 5738 5741 5743 5745 5746 5749 5750 5752 5754 5753 5753 5755 5756 5755 5755 5758
5704 5707 5711 5715 5719 5723 5726 5730 5731 5733 5735 5736 5738 5740 5741 5742 5742 5744 5744 5745 5741 5744
5690 5694 5697 5701 5705 5709 5712 5715 5718 5721 5722 5724 5726 5727 5728 5729 5730 5731 5731 5731 5730 5729
5677 5681 5684 5689 5692 5694 5698 5701 5704 5707 5709 5712 5715 5715 5716 5715 5716 5717 5719 5719 5720 5718
5664 5668 5671 5675 5678 5681 5684 5687 5689 5693 5698 5701 5705 5704 5703 5701 5705 5704 5707 5708 5708 5707
5653 5655 5657 5660 5663 5667 5670 5674 5677 5681 5686 5688 5690 5689 5690 5692 5692 5691 5694 5694 5695 5696
5644 5646 5648 5650 5652 5653 5655 5659 5662 5666 5671 5673 5675 5677 5678 5679 5679 5681 5681 5682 5683 5683
5632 5635 5637 5638 5639 5640 5642 5645 5648 5652 5656 5660 5663 5663 5662 5668 5666 5667 5669 5670 5670 5671
5620 5623 5625 5626 5627 5628 5629 5631 5635 5638 5642 5645 5649 5649 5652 5655 5652 5655 5655 5657 5658 5663
5608 5610 5612 5615 5617 5618 5619 5621 5623 5626 5629 5633 5635 5638 5642 5643 5642 5643 5645 5644 5645 5647
5597 5600 5602 5604 5606 5608 5610 5612 5614 5617 5619 5621 5623 5627 5630 5632 5630 5633 5635 5635 5637 5637
5585 5588 5591 5593 5595 5597 5599 5601 5604 5606 5608 5611 5613 5615 5616 5619 5621 5622 5623 5625 5627 5628
5575 5577 5579 5582 5584 5587 5588 5591 5593 5595 5598 5600 5602 5604 5605 5608 5609 5610 5612 5615 5617 5617